Satellite: NOAA-17
Catalog number: 27453
Epoch time:      11082.75020005
Element set:    0229
Inclination:      098.3898 deg
RA of node:       126.3438 deg
Eccentricity:    0.0012317
Arg of perigee:   044.1158 deg
Mean anomaly:     316.0996 deg
Mean motion:   14.24247831 rev/day
Decay rate:       -5.7e-07 rev/day^2
Epoch rev:           45449
Checksum:              302

Satellite: NOAA-18
Catalog number: 28654
Epoch time:      11082.82234141
Element set:    0711
Inclination:      098.9886 deg
RA of node:       033.7998 deg
Eccentricity:    0.0014264
Arg of perigee:   349.0260 deg
Mean anomaly:     011.0589 deg
Mean motion:   14.11450268 rev/day
Decay rate:       1.37e-06 rev/day^2
Epoch rev:           30088
Checksum:              304

Satellite: NOAA-19
Catalog number: 33591
Epoch time:      11082.80068840
Element set:    0904
Inclination:      098.8217 deg
RA of node:       024.4207 deg
Eccentricity:    0.0013468
Arg of perigee:   215.3670 deg
Mean anomaly:     144.6600 deg
Mean motion:   14.11143288 rev/day
Decay rate:       1.67e-06 rev/day^2
Epoch rev:           10934
Checksum:              285

/EX
SB KEPS @ AMSAT  $ORB11083.M
Orbital Elements  11083.MISC

HR AMSAT ORBITAL ELEMENTS FOR MANNED AND MISCELLANEOUS SATELLITES
FROM WA5QGD FORT WORTH,TX March 24, 2011
Send Subscribe/unsubscribe to KEPS at http://www.amsat.org/mailman/listinfo/kep
BID: ORB11083.M
TO ALL RADIO AMATEURS BT

Satellite: HUBBLE
Catalog number: 20580
Epoch time:      11081.63129642
Element set:     733
Inclination:      028.4716 deg
RA of node:       221.8120 deg
Eccentricity:    0.0003172
Arg of perigee:   281.0775 deg
Mean anomaly:     078.9467 deg
Mean motion:   15.01221220 rev/day
Decay rate:       8.49e-06 rev/day^2
Epoch rev:           94663
Checksum:              274

Satellite: ISS
Catalog number: 25544
Epoch time:      11084.03009690
Element set:      64
Inclination:      051.6460 deg
RA of node:       232.6759 deg
Eccentricity:    0.0001309
Arg of perigee:   043.9545 deg
Mean anomaly:     060.3615 deg
Mean motion:   15.71987217 rev/day
Decay rate:     2.0956e-04 rev/day^2
Epoch rev:           70765
Checksum:              293

Satellite: CO-58
Catalog number: 28895
Epoch time:      11082.60808289
Element set:    0833
Inclination:      097.9814 deg
RA of node:       322.2477 deg
Eccentricity:    0.0018967
Arg of perigee:   128.2053 deg
Mean anomaly:     232.0873 deg
Mean motion:   14.60034222 rev/day
Decay rate:       2.60e-06 rev/day^2
Epoch rev:           28775
Checksum:              325

Satellite: FALCON
Catalog number: 30776
Epoch time:      11082.56993320
Element set:    0065
Inclination:      035.4328 deg
RA of node:       147.4449 deg
Eccentricity:    0.0000859
Arg of perigee:   035.7065 deg
Mean anomaly:     324.3709 deg
Mean motion:   15.04252416 rev/day
Decay rate:      1.338e-05 rev/day^2
Epoch rev:           22214
Checksum:              281

Satellite: MAST
Catalog number: 31126
Epoch time:      11082.96267249
Element set:    0129
Inclination:      097.9042 deg
RA of node:       114.9737 deg
Eccentricity:    0.0095657
Arg of perigee:   076.2986 deg
Mean anomaly:     284.8840 deg
Mean motion:   14.53693794 rev/day
Decay rate:       2.22e-06 rev/day^2
Epoch rev:           20870
Checksum:              332

Satellite: CAPE1
Catalog number: 31130
Epoch time:      11082.73122696
Element set:     134
Inclination:      097.9076 deg
RA of node:       111.6507 deg
Eccentricity:    0.0103925
Arg of perigee:   087.2257 deg
Mean anomaly:     274.0847 deg
Mean motion:   14.52316693 rev/day
Decay rate:       2.73e-06 rev/day^2
Epoch rev:           20823
Checksum:              283

Satellite: COMPASS
Catalog number: 32787
Epoch time:      11083.69863272
Element set:     941
Inclination:      097.8545 deg
RA of node:       149.0660 deg
Eccentricity:    0.0016833
Arg of perigee:   092.3759 deg
Mean anomaly:     267.9358 deg
Mean motion:   14.82218776 rev/day
Decay rate:      1.136e-05 rev/day^2
Epoch rev:           15704
Checksum:              339

Satellite: AAUSAT2
Catalog number: 32788
Epoch time:      11083.60508368
Element set:     931
Inclination:      097.8547 deg
RA of node:       149.1714 deg
Eccentricity:    0.0016524
Arg of perigee:   093.4319 deg
Mean anomaly:     266.8799 deg
Mean motion:   14.82386078 rev/day
Decay rate:       8.54e-06 rev/day^2
Epoch rev:           15704
Checksum:              343

Satellite: DO-64
Catalog number: 32789
Epoch time:      11082.82860993
Element set:    0949
Inclination:      097.8647 deg
RA of node:       149.2609 deg
Eccentricity:    0.0016601
Arg of perigee:   094.3887 deg
Mean anomaly:     265.9201 deg
Mean motion:   14.82722033 rev/day
Decay rate:      1.585e-05 rev/day^2
Epoch rev:           15693
Checksum:              352

Satellite: CO-66
Catalog number: 32791
Epoch time:      11083.69850432
Element set:     933
Inclination:      097.8565 deg
RA of node:       149.0315 deg
Eccentricity:    0.0017073
Arg of perigee:   091.1269 deg
Mean anomaly:     269.1902 deg
Mean motion:   14.81946959 rev/day
Decay rate:      1.007e-05 rev/day^2
Epoch rev:           15699
Checksum:              340

